Regional Weather Roundup
Issued by NWS

Home | Current Version | Previous Version | Graphics & Text | Print | Product List | Glossary On
Versions: 1 2 3 4 5 6 7 8 9 10 11 12 13 14 15 16 17 18 19 20 21 22 23 24 25 26 27 28 29 30 31 32 33 34 35 36 37 38 39 40 41 42 43 44 45 46 47 48 49 50
000
ASUS43 KIND 020209
RWRIN

WEATHER ROUNDUP FOR INDIANA
NATIONAL WEATHER SERVICE INDIANAPOLIS IN
1000 PM EDT FRI AUG 01 2014

NOTE: "FAIR" INDICATES FEW OR NO CLOUDS BELOW 12,000 FEET WITH NO
SIGNIFICANT WEATHER AND/OR OBSTRUCTIONS TO VISIBILITY.

* - STATION DOES NOT REPORT WEATHER SUCH AS PRECIPITATION OR FOG.

+ - STATION NOT QUALITY CONTROLLED BY THE NATIONAL WEATHER SERVICE.
    USE DATA WITH CAUTION...ESPECIALLY DEWPOINT AND RELATIVE
    HUMIDITY OBSERVATIONS.

INZ001>003-010>013-019-020-020300-
NORTHWEST INDIANA

CITY           SKY/WX    TMP DP  RH WIND       PRES   REMARKS
GARY /AIRPORT/ MOCLDY    66  59  77 SW6       30.10R
KNOX *+        CLOUDY    63  60  91 CALM      30.10S
LA PORTE +     CLOUDY    62  60  91 CALM      30.12S
MICHIGAN CITY+ MOCLDY    63  57  82 CALM      30.11S
MONTICELLO +   CLOUDY    65  62  89 CALM      30.10R
RENSSELAER +   CLOUDY    64  63  94 CALM      30.11R
VALPARAISO     CLOUDY    61  59  93 CALM      30.12R

$$

LMZ046-743>745-020300-
SOUTHERN LAKE MICHIGAN

STATION/POSITION TIME  TEMP WIND        PRES
                       AIR  DIR/SP/G
                 (UTC) (F)  (DEG/KT/KT) (MB)
BURNS HARBOR     0100   72  170/  3/  7   N/A
MICHIGAN CITY    0100   72  160/  4/  6   N/A

$$

INZ004-005-014>016-021>024-020300-
NORTH CENTRAL INDIANA

CITY           SKY/WX    TMP DP  RH WIND       PRES   REMARKS
GOSHEN         CLOUDY    67  62  84 CALM      30.11R
LOGANSPORT +   CLOUDY    63  61  94 N6        30.11R
PERU/GRISSOM   CLOUDY    67  67 100 NE2       30.11R
ROCHESTER +    CLOUDY    70  61  73 NE5       30.12R
SOUTH BEND     MOCLDY    65  58  78 CALM      30.12R
WARSAW +       CLOUDY    64  63  94 CALM      30.12R

$$

INZ006>009-017-018-025>027-020300-
NORTHEAST INDIANA

CITY           SKY/WX    TMP DP  RH WIND       PRES   REMARKS
ANGOLA *+      CLEAR     70  61  73 CALM      30.11R
AUBURN +       CLOUDY    68  59  73 CALM      30.12R
FORT WAYNE     CLOUDY    69  60  73 NW3       30.10R
HUNTINGTON +   MOCLDY    66  61  82 CALM      30.10R

$$

INZ028-029-035-036-043>045-051>053-020300-
WEST CENTRAL INDIANA

CITY           SKY/WX    TMP DP  RH WIND       PRES   REMARKS
GREENCASTLE +  CLOUDY    64  59  82 CALM      30.09S
LAFAYETTE      CLOUDY    65  62  90 N3        30.08R
TERRE HAUTE    CLOUDY    70  63  78 W9        30.09R

$$

INZ030>032-037>040-046>048-054>057-064-065-020300-
CENTRAL INDIANA

CITY           SKY/WX    TMP DP  RH WIND       PRES   REMARKS
CP ATTERBURY + PTCLDY    66  59  77 CALM      30.09R
COLUMBUS       PTCLDY    66  63  88 CALM      30.08R
INDIANAPOLIS   CLOUDY    68  61  78 NE3       30.07S
-EAGLE CREEK   CLOUDY    68  61  78 NE5       30.08R
KOKOMO *+      MOCLDY    66  63  88 NE5       30.11R
MARION +       MOCLDY    64  59  85 CALM      30.11S
MT COMFORT *+  PTCLDY    66  66 100 CALM      30.10R
SHELBYVILLE    PTCLDY    67  61  81 N6        30.09R
ZIONSVILLE +   CLOUDY    66  59  78 CALM      30.10R

$$

INZ033-034-041-042-049-050-058-059-020300-
EAST CENTRAL INDIANA

CITY           SKY/WX    TMP DP  RH WIND       PRES   REMARKS
MUNCIE         MOCLDY    67  59  75 N5        30.10R

$$

INZ060-061-067>069-081>083-085>088-020300-
SOUTHWEST INDIANA

CITY           SKY/WX    TMP DP  RH WIND       PRES   REMARKS
EVANSVILLE     CLEAR     74  63  68 CALM      30.06R
WASHINGTON +   PTCLDY    68  66  93 CALM      30.05S

$$

INZ062-063-066-070>080-084-089>092-020300-
SOUTH CENTRAL AND SOUTHEAST INDIANA

CITY           SKY/WX    TMP DP  RH WIND       PRES   REMARKS
BEDFORD +      CLEAR     72  61  68 N3        30.07R
BLOOMINGTON    MOCLDY    65  62  90 CALM      30.08R
NORTH VERNON + CLEAR     70  68  94 CALM      30.08R

$$



USA.gov is the U.S. government's official web portal to all federal, state and local government web resources and services.